Find Starlink 32091

NORAD ID: 59684 Int'l Des: 2024-086 Owner: SPXS Country: US Constellation: starlink operational
LEOCIRCULAR

現在のビュー

3D地球を読み込み中...

About Starlink 32091

Starlink 32091 (NORAD 59684) is a starlink constellation satellite (v2 mini) launched May 8, 2024 by SPXS of US. It operates in LEO, CIRCULAR orbit with a mass of 730.00 kg.

次回通過

Passes for default location (London). Set your location on the main map for personalized predictions.

高度履歴

Loading altitude history...

軌道要素

1 59684U 24086C 26253.96076342 -.00000427 00000-0 -60061-5 0 9990
2 59684 43.0003 86.0856 0000968 266.7269 93.3472 15.27573188132548
Epoch: Sep 10, 2026 • Age: 12 hours

現在のステータス

高度 490.0 km
遠地点 / 近地点 N/A
速度 7.62 km/s
衛星直下点 -28.38°S, 142.69°E
打ち上げ日 May 8, 2024
運用期間 2.3 years
タイプ internet

技術仕様

分類 Payload
質量 730.00 kg
乾燥質量 700.00 kg
総質量 730.00 kg
長さ 0.30 m
直径 4.10 m
スパン 29.00 m
形状 Box + pan
製造者 SPXS
バスタイプ Starlink V2M
フェーズステータス In Orbit
所有者/国 SPXS/US

Most Searched